STARLINK-11434 [DTC] (62420 NORAD) Tracking and Keplerian Element Data

This shows tracking and keplerian element data for the satellite.

Feedback or suggestion? Click here.




ElementValue
Catalog62420
NameSTARLINK-11434 [DTC]
Epoch Orbit679
Epoch Day35.11985619
Epoch Year2025
RAAN50.3246
Inclination43.0026
Eccentricity0.0003858
Argument of Perigee181.7793
Mean Anonmoly178.3063
Mean Motion15.75590412
Decay Rate8.657E-05
L11 62420U 24249M 25035.11985619 .00008657 00000+0 58013-4 0 9996
L22 62420 43.0026 50.3246 0003858 181.7793 178.3063 15.75590412 6790



Live tracking and technical data element details for STARLINK-11434 [DTC] (NORAD 62420). STARLINK-11434 [DTC] can be tracked NOW for your location showing map with azimuth and elevation plus other details from your city location.







IsCatalogInMostPopularTable: catalog: 62420, numindb: 14
Update: records affected: 1



GetName: 62420 STARLINK-11434 [DTC]

Hit Count: updated at: Mon, 19 May 2025 02:59:41 GMT